User: anonymous   Login
Location: *
(44.1392°N, 4.8079°E)
Time: 07:17:59
(UTC+00:00)
Language:

Cosmos 1943 - Orbit

View from above orbital plane
View from above orbital plane
View from above satellite
View from above satellite

Ground track
Ground track

The orbit data is extracted from the following two-line orbital elements,

1 19119U 88039A   21267.77044395  .00000196  00000-0  12553-3 0  9991
2 19119  71.0034  64.2743 0012498 213.3159 239.8505 14.15183458722870
Epoch (UTC): 24 September 2021 18:29:26
Eccentricity: 0.0012498
inclination: 71.0034°
perigee height: 832 km
apogee height: 851 km
right ascension of ascending node: 64.2743°
argument of perigee: 213.3159°
revolutions per day: 14.15183458
mean anomaly at epoch: 239.8505°
orbit number at epoch: 72287

The dashed part of the orbit path shows where the satellite is in the earth's shadow,  

DLR